Location: Minneapolis
(45.0000°N, 93.0000°W)
Time: 12:04:26
(UTC-05:00)

ISS - Pass Details

Date: 17 March 2018
Orbit: 403 x 408 km, 51.6° (Epoch: 20 September)

Event Time Altitude Azimuth Distance (km) Brightness Sun altitude
Exits shadow 06:09:55 23° 283° (WNW) 943 -2.5 -13.3°
Maximum altitude 06:11:44 50° 216° (SW) 530 -3.6 -13.0°
Drops below altitude 10° 06:14:57 10° 139° (SE) 1,471 -0.6 -12.4°
Sets 06:17:03 0° 134° (SE) 2,325 0.6 -12.0°
